"2010-09-26 00:00:00",193261,0.983,95.4,5.854,0.107,18.24,108.147,20.14,20.97,20.75,0,111.1,13.14,20.96,57.4
"2010-09-26 00:00:30",193262,1.209,114.2,7.186,0.14,18.22,108.1495,20.14,20.98,20.69,0,111.1,13.14,20.97,76.2
"2010-09-26 00:01:00",193263,0.969,116,8.05,0.142,18.21,108.1519,20.15,20.98,20.74,0,111.1,13.14,20.97,78.0
"2010-09-26 00:01:30",193264,1.766,132.9,4.009,0.41,18.06,108.1537,20.15,20.99,20.78,0,111.1,13.14,20.98,94.9
"2010-09-26 00:02:00",193265,1.838,130,6.514,0.179,18.05,108.1534,20.15,21,20.61,0,111.1,13.14,20.98,92.0
"2010-09-26 00:02:30",193266,1.852,138.5,4.991,0.21,18.08,108.1543,20.16,20.98,20.73,0,111.1,13.14,20.98,100.5
"2010-09-26 00:03:00",193267,1.868,151.7,14.88,0.22,18.18,108.1546,20.16,20.98,20.75,0,111.1,13.14,20.98,113.7
"2010-09-26 00:03:30",193268,1.894,143.4,6.997,0.182,18.14,108.1526,20.15,20.98,20.72,0,111.1,13.14,20.97,105.4
"2010-09-26 00:04:00",193269,1.575,120,9.31,0.313,18.19,108.1525,20.15,20.99,20.69,0,111.1,13.14,20.97,82.0
"2010-09-26 00:04:30",193270,1.988,113.4,12.08,0.193,18.12,108.1412,20.12,20.98,20.55,0,111.1,13.14,20.94,75.4
"2010-09-26 00:05:00",193271,2.058,140.4,3.314,0.16,18.17,108.1317,20.1,20.97,20.64,0,111.1,13.14,20.92,102.4
"2010-09-26 00:05:30",193272,2.153,140.4,7.944,0.177,18.14,108.1311,20.1,20.97,20.64,0,111.1,13.14,20.92,102.4
"2010-09-26 00:06:00",193273,1.764,145,3.904,0.161,18.14,108.1275,20.09,20.97,20.66,0,111.1,13.14,20.91,107.0
"2010-09-26 00:06:30",193274,1.688,151.2,3.437,0.097,18.06,108.1241,20.08,20.96,20.67,0,111.1,13.14,20.90,113.2
"2010-09-26 00:07:00",193275,1.628,143.3,5.089,0.091,18.16,108.1227,20.07,20.97,20.6,0,111.1,13.13,20.90,105.3
"2010-09-26 00:07:30",193276,1.446,138.2,2.93,0.087,18.25,108.1227,20.07,20.96,20.59,0,111.1,13.13,20.90,100.2
"2010-09-26 00:08:00",193277,1.524,145.4,3.183,0.085,18.21,108.1227,20.07,20.97,20.59,0,111.1,13.13,20.90,107.4
"2010-09-26 00:08:30",193278,1.19,140,4.911,0.197,18.06,108.1227,20.07,20.96,20.63,0,111.1,13.13,20.90,102.0
"2010-09-26 00:09:00",193279,1.429,137.7,7.367,0.225,18.14,108.1227,20.07,20.95,20.59,0,111.1,13.13,20.90,99.7
"2010-09-26 00:09:30",193280,1.469,131.3,6.571,0.169,18.09,108.1227,20.07,20.94,20.56,0,111.1,13.13,20.90,93.3
"2010-09-26 00:10:00",193281,1.164,150.9,4.72,0.056,18.17,108.1227,20.07,20.94,20.57,0,111.1,13.13,20.90,112.9
"2010-09-26 00:10:30",193282,1.33,159.4,3.263,0.224,18.15,108.1227,20.07,20.94,20.58,0,111.1,13.13,20.90,121.4
"2010-09-26 00:11:00",193283,1.221,160.4,2.984,0.227,18.16,108.1227,20.07,20.94,20.59,0,111.1,13.14,20.90,122.4
"2010-09-26 00:11:30",193284,1,150.8,4.273,0.07,17.99,108.1227,20.07,20.94,20.6,0,111.1,13.14,20.90,112.8
"2010-09-26 00:12:00",193285,0.755,149.6,2.789,0.095,18.2,108.1227,20.07,20.95,20.62,0,111.1,13.14,20.90,111.6
"2010-09-26 00:12:30",193286,0.83,151.6,3.462,0.174,18.18,108.1227,20.07,20.95,20.61,0,111,13.14,20.90,113.6
"2010-09-26 00:13:00",193287,1.137,137.9,5.131,0.107,18.05,108.1201,20.07,20.94,20.59,0,111,13.14,20.89,99.9
"2010-09-26 00:13:30",193288,0.968,152.5,7.617,0.166,18.12,108.1218,20.07,20.93,20.61,0,111,13.14,20.89,114.5
"2010-09-26 00:14:00",193289,1.188,162.6,1.532,0.126,18.22,108.1204,20.07,20.93,20.65,0,111,13.14,20.89,124.6
"2010-09-26 00:14:30",193290,1.472,166.8,5.186,0.133,18.18,108.1227,20.07,20.93,20.58,0,111,13.14,20.90,128.8
"2010-09-26 00:15:00",193291,1.086,157.4,12.36,0.175,18.22,108.1227,20.07,20.95,20.6,0,111,13.14,20.90,119.4
"2010-09-26 00:15:30",193292,0.821,112.4,16.56,0.196,18.22,108.1213,20.07,20.93,20.62,0,111,13.14,20.89,74.4
"2010-09-26 00:16:00",193293,0.941,105.9,10.47,0.164,18.22,108.1086,20.04,20.92,20.57,0,111,13.14,20.86,67.9
"2010-09-26 00:16:30",193294,0.915,122.4,7.883,0.15,18.21,108.0991,20.01,20.93,20.56,0,111,13.14,20.84,84.4
"2010-09-26 00:17:00",193295,1.224,132,4.243,0.08,18.03,108.0943,20,20.92,20.49,0,111,13.14,20.82,94.0
"2010-09-26 00:17:30",193296,1.322,126.6,3.725,0.089,18.2,108.0918,20,20.92,20.5,0,111,13.14,20.82,88.6
"2010-09-26 00:18:00",193297,1.292,131.8,3.057,0.073,18.06,108.0898,19.99,20.91,20.5,0,111,13.14,20.81,93.8
"2010-09-26 00:18:30",193298,1.026,129.4,6.436,0.092,18.23,108.0893,19.99,20.89,20.51,0,111,13.14,20.81,91.4
"2010-09-26 00:19:00",193299,1.088,147,5.058,0.177,18.2,108.0899,19.99,20.91,20.5,0,111,13.14,20.81,109.0
"2010-09-26 00:19:30",193300,1.377,142.5,3.352,0.059,18.32,108.0896,19.99,20.91,20.52,0,111,13.14,20.81,104.5
"2010-09-26 00:20:00",193301,1.342,136,3.316,0.068,18.11,108.0938,20,20.91,20.52,0,111,13.15,20.82,98.0
"2010-09-26 00:20:30",193302,1.292,137.2,3.664,0.14,18.22,108.0938,20,20.9,20.52,0,111,13.14,20.82,99.2
"2010-09-26 00:21:00",193303,1.104,144.3,8.33,0.07,18.12,108.1008,20.02,20.9,20.51,0,111,13.15,20.84,106.3
"2010-09-26 00:21:30",193304,1.265,144.4,3.303,0.1,18.27,108.106,20.03,20.89,20.51,0,111,13.15,20.85,106.4
"2010-09-26 00:22:00",193305,1.243,142.6,3.045,0.085,18.3,108.1102,20.04,20.9,20.53,0,111,13.15,20.86,104.6
"2010-09-26 00:22:30",193306,1.427,147.8,3.525,0.155,18.41,108.1139,20.05,20.89,20.54,0,111,13.15,20.87,109.8
"2010-09-26 00:23:00",193307,1.674,149.7,3.973,0.119,18.26,108.1154,20.06,20.88,20.54,0,111,13.14,20.88,111.7
"2010-09-26 00:23:30",193308,1.66,158.9,9.38,0.14,18.3,108.1154,20.06,20.88,20.59,0,111,13.14,20.88,120.9
"2010-09-26 00:24:00",193309,1.066,175.2,9.89,0.221,18.44,108.116,20.06,20.89,20.6,0,111,13.14,20.88,137.2
"2010-09-26 00:24:30",193310,1.121,159.9,3.545,0.137,18.42,108.116,20.06,20.88,20.56,0,111,13.14,20.88,121.9
"2010-09-26 00:25:00",193311,0.868,154.6,13.07,0.176,18.42,108.116,20.06,20.91,20.53,0,111,13.14,20.88,116.6
"2010-09-26 00:25:30",193312,0.918,132,3.453,0.121,18.53,108.1166,20.06,20.9,20.49,0,111,13.14,20.88,94.0
"2010-09-26 00:26:00",193313,1.113,126.9,2.879,0.065,18.56,108.1163,20.06,20.89,20.48,0,111,13.14,20.88,88.9
"2010-09-26 00:26:30",193314,1.101,128.5,3.213,0.101,18.55,108.1181,20.06,20.89,20.49,0,111,13.14,20.88,90.5
"2010-09-26 00:27:00",193315,1.061,130,3.633,0.064,18.56,108.1159,20.06,20.89,20.49,0,111,13.14,20.88,92.0
"2010-09-26 00:27:30",193316,1.233,142,8.28,0.17,18.26,108.1125,20.05,20.88,20.49,0,111,13.14,20.87,104.0
"2010-09-26 00:28:00",193317,1.267,142.6,5.535,0.076,18.41,108.111,20.04,20.89,20.53,0,111,13.14,20.87,104.6
"2010-09-26 00:28:30",193318,1.386,134.8,1.665,0.084,18.27,108.1074,20.04,20.88,20.49,0,111,13.14,20.86,96.8
"2010-09-26 00:29:00",193319,1.272,131,2.547,0.073,18.42,108.1024,20.02,20.88,20.48,0,111,13.15,20.84,93.0
"2010-09-26 00:29:30",193320,1.333,135.7,1.933,0.058,18.25,108.101,20.02,20.87,20.5,0,111,13.15,20.84,97.7
"2010-09-26 00:30:00",193321,1.385,135.9,3.054,0.105,18.33,108.0976,20.01,20.88,20.47,0,111,13.15,20.83,97.9
"2010-09-26 00:30:30",193322,1.369,145,3.278,0.064,18.72,108.0928,20,20.88,20.54,0,111,13.15,20.82,107.0
"2010-09-26 00:31:00",193323,1.326,139.2,4.802,0.049,18.53,108.0934,20,20.88,20.57,0,111,13.15,20.82,101.2
"2010-09-26 00:31:30",193324,1.528,128.1,1.753,0.076,18.36,108.0954,20,20.87,20.48,0,111,13.15,20.83,90.1
"2010-09-26 00:32:00",193325,1.645,125.6,3.73,0.098,18.54,108.092,20,20.88,20.49,0,111,13.15,20.82,87.6
"2010-09-26 00:32:30",193326,1.725,132.9,1.171,0.075,18.81,108.0917,19.99,20.88,20.51,0,111,13.15,20.82,94.9
"2010-09-26 00:33:00",193327,1.692,131.9,3.185,0.059,18.74,108.0917,19.99,20.86,20.54,0,111,13.15,20.82,93.9
"2010-09-26 00:33:30",193328,1.59,126.6,4.796,0.154,18.48,108.0917,19.99,20.87,20.54,0,111,13.15,20.82,88.6
"2010-09-26 00:34:00",193329,1.73,123.9,4.437,0.135,18.5,108.0917,19.99,20.87,20.52,0,111,13.15,20.82,85.9
"2010-09-26 00:34:30",193330,1.687,114.7,4.054,0.13,18.64,108.0909,19.99,20.85,20.49,0,111,13.15,20.81,76.7
"2010-09-26 00:35:00",193331,2.024,116.3,3.167,0.066,18.65,108.0835,19.97,20.85,20.58,0,111,13.15,20.80,78.3
"2010-09-26 00:35:30",193332,1.865,119.8,3.005,0.09,18.63,108.0701,19.94,20.84,20.63,0,111,13.15,20.76,81.8
"2010-09-26 00:36:00",193333,1.873,123.3,3.63,0.112,18.54,108.0667,19.93,20.84,20.69,0,111,13.15,20.75,85.3
"2010-09-26 00:36:30",193334,1.915,145.2,5.045,0.104,18.59,108.0606,19.92,20.83,20.76,0,111,13.15,20.74,107.2
"2010-09-26 00:37:00",193335,2.093,154.7,4.723,0.183,18.63,108.0589,19.91,20.83,20.93,0,111,13.15,20.73,116.7
"2010-09-26 00:37:30",193336,2.048,147.3,6.048,0.109,18.63,108.052,19.89,20.81,20.95,0,111,13.15,20.71,109.3
"2010-09-26 00:38:00",193337,1.812,145.1,2.403,0.085,18.52,108.0287,19.83,20.78,20.97,0,111,13.16,20.65,107.1
"2010-09-26 00:38:30",193338,1.849,141.3,3.227,0.131,18.65,108.0297,19.84,20.76,20.98,0,111,13.16,20.66,103.3
"2010-09-26 00:39:00",193339,1.848,147.4,6.511,0.069,18.71,108.0295,19.84,20.75,20.97,0,110.9,13.16,20.66,109.4
"2010-09-26 00:39:30",193340,1.481,154.7,4.328,0.068,18.84,108.0248,19.82,20.74,20.98,0,110.9,13.16,20.64,116.7
"2010-09-26 00:40:00",193341,1.415,168.9,2.978,0.092,18.93,108.0236,19.82,20.72,20.93,0,110.9,13.15,20.64,130.9
"2010-09-26 00:40:30",193342,1.271,165.2,4.346,0.071,19.08,108.0298,19.84,20.7,20.93,0,110.9,13.15,20.66,127.2
"2010-09-26 00:41:00",193343,1.284,159.1,3.164,0.124,19.04,108.0194,19.81,20.71,21.02,0,110.9,13.15,20.63,121.1
"2010-09-26 00:41:30",193344,1.728,159,4.385,0.137,19.02,108.0165,19.8,20.7,21.06,0,110.9,13.15,20.62,121.0
"2010-09-26 00:42:00",193345,1.803,156.9,5.026,0.168,19,108.0176,19.8,20.69,21.07,0,110.9,13.15,20.63,118.9
"2010-09-26 00:42:30",193346,1.761,153.4,5.197,0.076,18.96,108.0179,19.81,20.69,21.13,0,110.9,13.15,20.63,115.4
"2010-09-26 00:43:00",193347,1.743,154.7,3.628,0.107,18.91,108.0185,19.81,20.68,21.12,0,110.9,13.15,20.63,116.7
"2010-09-26 00:43:30",193348,1.809,150.4,3.597,0.119,18.91,108.0182,19.81,20.68,21.12,0,110.9,13.15,20.63,112.4
"2010-09-26 00:44:00",193349,1.784,147.5,1.06,0.041,18.71,108.023,19.82,20.67,21.1,0,110.9,13.15,20.64,109.5
"2010-09-26 00:44:30",193350,1.821,145.6,1.419,0.067,18.74,108.0246,19.82,20.66,21.09,0,110.9,13.15,20.64,107.6
"2010-09-26 00:45:00",193351,1.87,142.9,1.219,0.076,18.8,108.0197,19.81,20.68,21.09,0,110.9,13.16,20.63,104.9
"2010-09-26 00:45:30",193352,1.777,147.4,3.443,0.07,18.78,108.0118,19.79,20.67,21.08,0,110.9,13.16,20.61,109.4
"2010-09-26 00:46:00",193353,1.883,151.3,2.366,0.055,19.19,108.0065,19.78,20.65,21.13,0,110.9,13.16,20.60,113.3
"2010-09-26 00:46:30",193354,1.864,158.6,1.269,0.043,19.3,108.0053,19.77,20.63,21.21,0,110.9,13.16,20.59,120.6
"2010-09-26 00:47:00",193355,1.74,155.3,3.176,0.089,18.97,108.0036,19.77,20.65,21.19,0,110.9,13.16,20.59,117.3
"2010-09-26 00:47:30",193356,1.44,149.4,3.541,0.116,19.19,108.0022,19.77,20.64,21.15,0,110.9,13.16,20.59,111.4
"2010-09-26 00:48:00",193357,1.756,149.6,2.065,0.197,19.05,107.9972,19.75,20.65,21.13,0,110.9,13.17,20.57,111.6
"2010-09-26 00:48:30",193358,1.824,150.4,3.474,0.108,18.98,107.9938,19.74,20.65,21.09,0,110.9,13.17,20.56,112.4
"2010-09-26 00:49:00",193359,1.776,143.9,2.506,0.07,18.87,107.9933,19.74,20.65,21.12,0,110.9,13.17,20.56,105.9
"2010-09-26 00:49:30",193360,1.698,134.6,2.765,0.135,19.2,107.9933,19.74,20.63,21.13,0,110.9,13.17,20.56,96.6
"2010-09-26 00:50:00",193361,1.598,142.5,4.593,0.121,18.94,107.9945,19.75,20.63,21.1,0,110.9,13.17,20.57,104.5
"2010-09-26 00:50:30",193362,1.561,145.9,2.176,0.087,19.11,107.9972,19.75,20.64,21.1,0,110.9,13.17,20.57,107.9
"2010-09-26 00:51:00",193363,1.619,144.7,5.025,0.089,19.02,108.0033,19.77,20.64,21.11,0,110.9,13.17,20.59,106.7
"2010-09-26 00:51:30",193364,1.515,147,2.441,0.086,19.12,108.0112,19.79,20.65,21.12,0,110.9,13.18,20.61,109.0
"2010-09-26 00:52:00",193365,1.528,149.9,3.59,0.234,19.11,108.0169,19.8,20.64,21.15,0,110.9,13.18,20.62,111.9
"2010-09-26 00:52:30",193366,1.137,155.9,4.555,0.16,19.19,108.0206,19.81,20.64,21.15,0,110.9,13.18,20.63,117.9
"2010-09-26 00:53:00",193367,1.002,150.8,8.51,0.092,18.85,108.0218,19.82,20.66,21.11,0,110.9,13.18,20.64,112.8
"2010-09-26 00:53:30",193368,1.11,150.1,3.113,0.085,18.99,108.026,19.83,20.66,21.1,0,110.9,13.18,20.65,112.1
"2010-09-26 00:54:00",193369,1.495,148.8,2.895,0.15,19.07,108.0282,19.83,20.67,21.1,0,110.9,13.18,20.65,110.8
"2010-09-26 00:54:30",193370,1.512,147.5,2.441,0.089,19.2,108.0294,19.84,20.66,21.11,0,110.8,13.18,20.66,109.5
"2010-09-26 00:55:00",193371,1.641,146.1,2.491,0.056,18.98,108.0297,19.84,20.67,21.06,0,110.8,13.18,20.66,108.1
"2010-09-26 00:55:30",193372,1.521,145.2,1.561,0.079,19.2,108.0297,19.84,20.66,21.01,0,110.8,13.18,20.66,107.2
"2010-09-26 00:56:00",193373,1.518,141.5,3.598,0.091,19.21,108.0297,19.84,20.67,21.04,0,110.8,13.18,20.66,103.5
"2010-09-26 00:56:30",193374,1.581,133.7,1.508,0.07,19.1,108.0176,19.8,20.67,21.13,0,110.8,13.18,20.63,95.7
"2010-09-26 00:57:00",193375,1.455,131.2,4.028,0.103,19.02,107.9982,19.76,20.66,21.12,0,110.8,13.18,20.58,93.2
"2010-09-26 00:57:30",193376,1.479,134.8,2.628,0.054,19.01,107.9959,19.75,20.64,21.13,0,110.8,13.18,20.57,96.8
"2010-09-26 00:58:00",193377,1.363,135.6,3.532,0.077,18.92,107.9959,19.75,20.64,21.12,0,110.8,13.18,20.57,97.6
"2010-09-26 00:58:30",193378,1.227,131.1,2.619,0.092,19.04,107.9959,19.75,20.64,21.1,0,110.8,13.18,20.57,93.1
"2010-09-26 00:59:00",193379,1.254,130,2.155,0.058,19.01,107.9959,19.75,20.65,21.11,0,110.8,13.18,20.57,92.0
"2010-09-26 00:59:30",193380,1.241,132.6,1.089,0.055,18.85,107.9962,19.75,20.63,21.13,0,110.8,13.18,20.57,94.6
"2010-09-26 01:00:00",193381,1.283,126.9,2.666,0.062,19.21,107.9987,19.76,20.65,21.12,0,110.8,13.18,20.58,88.9
"2010-09-26 01:00:30",193382,1.647,127.6,2.995,0.179,19,108.0015,19.76,20.64,21.1,0,110.8,13.18,20.58,89.6
"2010-09-26 01:01:00",193383,1.662,130.5,1.757,0.133,19.07,107.9858,19.72,20.63,21.09,0,110.8,13.18,20.54,92.5
"2010-09-26 01:01:30",193384,1.593,128.8,1.452,0.062,18.97,107.981,19.71,20.61,21.08,0,110.8,13.18,20.53,90.8
"2010-09-26 01:02:00",193385,1.683,123.9,4.123,0.065,18.93,107.9841,19.72,20.62,21.09,0,110.8,13.18,20.54,85.9
"2010-09-26 01:02:30",193386,1.788,121.6,1.638,0.071,18.86,107.9862,19.72,20.61,21.07,0,110.8,13.19,20.55,83.6
"2010-09-26 01:03:00",193387,1.771,125.1,3.692,0.051,18.9,107.9901,19.73,20.6,21.09,0,110.8,13.19,20.56,87.1
"2010-09-26 01:03:30",193388,1.714,129,1.412,0.053,19.02,107.9941,19.74,20.6,21.08,0,110.8,13.19,20.57,91.0
"2010-09-26 01:04:00",193389,1.771,124,1.759,0.065,18.82,107.9981,19.75,20.58,21.05,0,110.8,13.2,20.58,86.0
"2010-09-26 01:04:30",193390,1.892,124,2.645,0.036,18.92,107.9911,19.74,20.58,21.06,0,110.8,13.2,20.56,86.0
"2010-09-26 01:05:00",193391,2.006,124.9,1.811,0.116,19.03,107.9809,19.71,20.57,21.07,0,110.8,13.2,20.53,86.9
"2010-09-26 01:05:30",193392,2.258,124.1,0.909,0.035,19.04,107.9655,19.67,20.55,21.07,0,110.8,13.2,20.49,86.1
"2010-09-26 01:06:00",193393,2.2,123.6,1.16,0.044,19.07,107.9649,19.67,20.55,21.07,0,110.8,13.2,20.49,85.6
"2010-09-26 01:06:30",193394,2.223,122.9,1.406,0.058,19.02,107.9649,19.67,20.54,21.07,0,110.8,13.2,20.49,84.9
"2010-09-26 01:07:00",193395,1.988,125,2.173,0.087,19.04,107.9632,19.67,20.54,21.08,0,110.8,13.2,20.49,87.0
"2010-09-26 01:07:30",193396,2.282,125.3,0.648,0.061,19.01,107.9587,19.65,20.53,21.04,0,110.8,13.2,20.47,87.3
"2010-09-26 01:08:00",193397,2.315,126.6,0.847,0.039,18.98,107.9413,19.61,20.51,21.02,0,110.8,13.2,20.43,88.6
"2010-09-26 01:08:30",193398,2.23,126.4,0.621,0.019,19.03,107.9312,19.58,20.5,21.02,0,110.8,13.2,20.40,88.4
"2010-09-26 01:09:00",193399,2.191,126.8,0.903,0.037,19.03,107.9312,19.58,20.5,21.04,0,110.8,13.2,20.40,88.8
"2010-09-26 01:09:30",193400,2.228,128,0.849,0.035,19.04,107.9312,19.58,20.5,21.07,0,110.8,13.2,20.40,90.0
"2010-09-26 01:10:00",193401,2.161,125.6,0.447,0.028,19.09,107.9312,19.58,20.49,21.08,0,110.8,13.2,20.40,87.6
"2010-09-26 01:10:30",193402,2.151,125.9,0.488,0.014,19.09,107.9314,19.58,20.48,21.1,0,110.8,13.2,20.40,87.9
"2010-09-26 01:11:00",193403,2.176,127.1,0.749,0.036,19.05,107.9327,19.59,20.48,21.11,0,110.8,13.2,20.41,89.1
"2010-09-26 01:11:30",193404,2.149,127.9,0.505,0,18.99,107.9349,19.59,20.46,21.09,0,110.8,13.2,20.41,89.9
"2010-09-26 01:12:00",193405,2.1,127.5,0.785,0.042,18.98,107.9349,19.59,20.47,21.13,0,110.8,13.21,20.41,89.5
"2010-09-26 01:12:30",193406,2.149,127.4,0.57,0,18.97,107.9336,19.59,20.46,21.14,0,110.7,13.21,20.41,89.4
"2010-09-26 01:13:00",193407,2.203,127.9,0.819,0.037,19,107.9322,19.59,20.45,21.14,0,110.8,13.21,20.41,89.9
"2010-09-26 01:13:30",193408,2.28,129.5,0.83,0.05,19.07,107.9281,19.58,20.46,21.17,0,110.8,13.21,20.40,91.5
"2010-09-26 01:14:00",193409,2.322,130.3,1.099,0.042,19.07,107.9268,19.57,20.44,21.19,0,110.7,13.21,20.39,92.3
"2010-09-26 01:14:30",193410,2.358,130.1,1.04,0.044,19.09,107.9271,19.57,20.45,21.2,0,110.7,13.21,20.39,92.1
"2010-09-26 01:15:00",193411,2.328,129.4,1.32,0.038,19.09,107.9302,19.58,20.43,21.22,0,110.7,13.21,20.40,91.4
"2010-09-26 01:15:30",193412,2.345,129.2,0.641,0.037,19.09,107.932,19.59,20.43,21.23,0,110.7,13.21,20.41,91.2
"2010-09-26 01:16:00",193413,2.367,129,1.256,0.031,19.07,107.9335,19.59,20.44,21.25,0,110.7,13.21,20.41,91.0
"2010-09-26 01:16:30",193414,2.356,128.5,1.202,0.059,19.05,107.9338,19.59,20.43,21.23,0,110.7,13.21,20.41,90.5
"2010-09-26 01:17:00",193415,2.403,128.7,1.028,0.035,19.06,107.9338,19.59,20.43,21.23,0,110.7,13.21,20.41,90.7
"2010-09-26 01:17:30",193416,2.359,128.8,0.879,0.05,19.06,107.9338,19.59,20.44,21.19,0,110.7,13.21,20.41,90.8
"2010-09-26 01:18:00",193417,2.385,127.1,0.754,0.041,18.98,107.9338,19.59,20.44,21.21,0,110.7,13.21,20.41,89.1
"2010-09-26 01:18:30",193418,2.454,127,0.977,0.027,18.85,107.9338,19.59,20.44,21.2,0,110.7,13.21,20.41,89.0
"2010-09-26 01:19:00",193419,2.434,125.5,1.88,0.043,18.86,107.9338,19.59,20.44,21.18,0,110.7,13.21,20.41,87.5
"2010-09-26 01:19:30",193420,2.411,127,0.9,0.033,18.89,107.9338,19.59,20.44,21.14,0,110.7,13.21,20.41,89.0
"2010-09-26 01:20:00",193421,2.488,126.6,0.743,0.043,18.75,107.9338,19.59,20.43,21.1,0,110.7,13.21,20.41,88.6
"2010-09-26 01:20:30",193422,2.601,126.6,0.426,0.041,18.85,107.9338,19.59,20.45,21.14,0,110.7,13.21,20.41,88.6
"2010-09-26 01:21:00",193423,2.602,124.9,0.889,0.041,18.96,107.9338,19.59,20.45,21.17,0,110.7,13.21,20.41,86.9
"2010-09-26 01:21:30",193424,2.598,124.6,0.739,0.033,18.99,107.9338,19.59,20.45,21.16,0,110.7,13.21,20.41,86.6
"2010-09-26 01:22:00",193425,2.676,124.1,0.5,0.03,19.05,107.9338,19.59,20.45,21.14,0,110.7,13.21,20.41,86.1
"2010-09-26 01:22:30",193426,2.649,124.5,0.577,0.018,19.04,107.9344,19.59,20.44,21.12,0,110.7,13.22,20.41,86.5
"2010-09-26 01:23:00",193427,2.78,124,0.55,0.058,19.07,107.9335,19.59,20.45,21.07,0,110.7,13.22,20.41,86.0
"2010-09-26 01:23:30",193428,2.747,125,0.813,0.04,19.06,107.9375,19.6,20.44,21.03,0,110.7,13.22,20.42,87.0
"2010-09-26 01:24:00",193429,2.628,126.8,1.413,0.05,18.87,107.9384,19.6,20.45,20.98,0,110.7,13.22,20.42,88.8
"2010-09-26 01:24:30",193430,2.627,128.3,1.393,0.107,18.96,107.9405,19.61,20.46,20.95,0,110.7,13.22,20.43,90.3
"2010-09-26 01:25:00",193431,2.81,126.7,0.85,0.036,19.1,107.9399,19.61,20.47,20.93,0,110.7,13.22,20.43,88.7
"2010-09-26 01:25:30",193432,2.712,129.2,2.619,0.085,19.09,107.9405,19.61,20.48,20.92,0,110.7,13.22,20.43,91.2
"2010-09-26 01:26:00",193433,2.648,130.7,0.797,0.042,18.98,107.9411,19.61,20.48,20.92,0,110.7,13.22,20.43,92.7
"2010-09-26 01:26:30",193434,2.509,133.7,1.28,0.085,19.25,107.9451,19.62,20.5,20.9,0,110.7,13.22,20.44,95.7
"2010-09-26 01:27:00",193435,2.536,130.5,1.197,0.147,19.06,107.9487,19.63,20.5,20.9,0,110.7,13.22,20.45,92.5
"2010-09-26 01:27:30",193436,2.658,130,2.458,0.098,18.94,107.953,19.64,20.5,20.87,0,110.7,13.22,20.46,92.0
"2010-09-26 01:28:00",193437,2.768,129.6,0.842,0.065,19.05,107.9572,19.65,20.51,20.88,0,110.7,13.22,20.47,91.6
"2010-09-26 01:28:30",193438,2.817,129,0.973,0.037,19.13,107.9609,19.66,20.52,20.9,0,110.7,13.22,20.48,91.0
"2010-09-26 01:29:00",193439,2.818,129.1,0.897,0.051,19.14,107.9612,19.66,20.52,20.89,0,110.7,13.22,20.48,91.1
"2010-09-26 01:29:30",193440,2.893,129.2,0.715,0.039,19.18,107.9615,19.66,20.52,20.9,0,110.7,13.22,20.48,91.2
"2010-09-26 01:30:00",193441,2.922,128.7,0.582,0.036,19.19,107.9618,19.66,20.52,20.89,0,110.7,13.23,20.48,90.7
"2010-09-26 01:30:30",193442,2.995,127.9,0.465,0.038,19.2,107.963,19.66,20.52,20.86,0,110.7,13.23,20.49,89.9
"2010-09-26 01:31:00",193443,2.995,128.4,0.603,0.025,19.18,107.9651,19.67,20.52,20.87,0,110.7,13.22,20.49,90.4
"2010-09-26 01:31:30",193444,2.928,129.6,0.485,0.025,19.14,107.9691,19.68,20.51,20.9,0,110.7,13.22,20.50,91.6
"2010-09-26 01:32:00",193445,2.909,129.6,0.578,0.029,19.08,107.9694,19.68,20.51,20.79,0,110.7,13.22,20.50,91.6
"2010-09-26 01:32:30",193446,2.868,128.7,1.249,0.032,19.09,107.9692,19.68,20.51,20.66,0,110.7,13.22,20.50,90.7
"2010-09-26 01:33:00",193447,2.874,128.8,1.213,0.059,19.05,107.957,19.65,20.51,20.52,0,110.7,13.22,20.47,90.8
"2010-09-26 01:33:30",193448,2.839,129.3,0.657,0.044,19.09,107.9495,19.63,20.5,20.54,0,110.7,13.22,20.45,91.3
"2010-09-26 01:34:00",193449,2.865,130.2,1.19,0.039,19,107.9438,19.62,20.5,20.53,0,110.7,13.22,20.44,92.2
"2010-09-26 01:34:30",193450,2.858,131.6,0.578,0.043,18.9,107.9419,19.61,20.49,20.55,0,110.7,13.22,20.43,93.6
"2010-09-26 01:35:00",193451,2.881,134.1,0.581,0.046,18.74,107.943,19.61,20.49,20.51,0,110.7,13.22,20.43,96.1
"2010-09-26 01:35:30",193452,2.852,134.1,0.571,0.023,18.83,107.9458,19.62,20.49,20.46,0,110.7,13.22,20.44,96.1
"2010-09-26 01:36:00",193453,2.793,133.9,0.507,0.044,18.86,107.9452,19.62,20.5,20.46,0,110.7,13.22,20.44,95.9
"2010-09-26 01:36:30",193454,2.737,134.9,0.693,0.043,18.98,107.9466,19.62,20.5,20.4,0,110.7,13.23,20.44,96.9
"2010-09-26 01:37:00",193455,2.892,132.1,3.297,0.14,19.01,107.9483,19.63,20.5,20.4,0,110.7,13.23,20.45,94.1
"2010-09-26 01:37:30",193456,2.776,134.7,4.161,0.094,19.04,107.9427,19.61,20.5,20.44,0,110.7,13.23,20.43,96.7
"2010-09-26 01:38:00",193457,2.752,135.9,1.384,0.056,19,107.943,19.61,20.5,20.42,0,110.7,13.23,20.43,97.9
"2010-09-26 01:38:30",193458,2.831,134.8,1.333,0.048,18.88,107.943,19.61,20.52,20.36,0,110.7,13.23,20.43,96.8
"2010-09-26 01:39:00",193459,2.843,136.1,1.616,0.054,19,107.9416,19.61,20.5,20.43,0,110.7,13.23,20.43,98.1
"2010-09-26 01:39:30",193460,2.733,133.8,1.228,0.043,18.96,107.9424,19.61,20.5,20.33,0,110.7,13.23,20.43,95.8
"2010-09-26 01:40:00",193461,2.754,133.3,1.635,0.034,18.94,107.9413,19.61,20.52,20.33,0,110.7,13.23,20.43,95.3
"2010-09-26 01:40:30",193462,2.727,135.4,1.215,0.081,18.97,107.9399,19.61,20.51,20.37,0,110.7,13.23,20.43,97.4
"2010-09-26 01:41:00",193463,2.77,135.9,0.817,0.06,18.95,107.9393,19.6,20.52,20.32,0,110.7,13.23,20.42,97.9
"2010-09-26 01:41:30",193464,2.691,134.9,1.514,0.05,19.05,107.9391,19.6,20.52,20.4,0,110.7,13.23,20.42,96.9
"2010-09-26 01:42:00",193465,2.733,132.5,1.756,0.06,18.95,107.9396,19.6,20.51,20.47,0,110.7,13.23,20.43,94.5
"2010-09-26 01:42:30",193466,2.81,130.5,1.561,0.112,19.03,107.9388,19.6,20.51,20.52,0,110.7,13.23,20.42,92.5
"2010-09-26 01:43:00",193467,3.011,128.2,2.342,0.161,18.99,107.9374,19.6,20.52,20.46,0,110.7,13.23,20.42,90.2
"2010-09-26 01:43:30",193468,2.851,129.4,2.605,0.126,18.95,107.9377,19.6,20.51,20.49,0,110.7,13.23,20.42,91.4
"2010-09-26 01:44:00",193469,2.807,129,1.737,0.116,19.02,107.938,19.6,20.51,20.5,0,110.7,13.23,20.42,91.0
"2010-09-26 01:44:30",193470,2.929,127.5,2.578,0.087,19.08,107.9395,19.6,20.51,20.47,0,110.7,13.23,20.42,89.5
"2010-09-26 01:45:00",193471,3.045,128,2.714,0.136,19.05,107.9429,19.61,20.51,20.49,0,110.7,13.23,20.43,90.0
"2010-09-26 01:45:30",193472,2.982,126.3,2.031,0.06,19.1,107.9471,19.62,20.51,20.49,0,110.7,13.24,20.44,88.3
"2010-09-26 01:46:00",193473,3.128,126.3,2.824,0.101,19,107.9447,19.62,20.5,20.54,0,110.7,13.24,20.44,88.3
"2010-09-26 01:46:30",193474,3.054,130.1,2.846,0.099,18.98,107.9517,19.64,20.5,20.56,0,110.7,13.24,20.46,92.1
"2010-09-26 01:47:00",193475,3.271,126.2,4.673,0.16,19.02,107.9529,19.64,20.5,20.59,0,110.7,13.24,20.46,88.2
"2010-09-26 01:47:30",193476,3.036,126.5,3.182,0.153,19.02,107.9559,19.65,20.49,20.58,0,110.7,13.24,20.47,88.5
"2010-09-26 01:48:00",193477,3.233,130.3,3.192,0.202,19.05,107.959,19.65,20.5,20.56,0,110.7,13.23,20.48,92.3
"2010-09-26 01:48:30",193478,3.696,125.5,1.658,0.209,19.02,107.9617,19.66,20.5,20.64,0,110.7,13.23,20.48,87.5
"2010-09-26 01:49:00",193479,3.354,129.8,1.95,0.182,19,107.9632,19.67,20.5,20.63,0,110.7,13.23,20.49,91.8